N702CC KCLE-KBOS

Flight info

Callsign N702CC
Flight time N/A
Altitude 45000
Route PFLYD1 JASEE JHW Q82 PONCT JFUND2
Aircraft C750/M-VGDW/C

Departure

Time 2026-05-05 01:31
Airport Cleveland Hopkins International Airport (KCLE)

Arrival

Time N/A
Airport Boston Logan International Airport (KBOS)
Time Latitude Longitude Altitude Speed Heading
2026-05-05 01:16 41.40208 -81.85384 779 ft 0 kts 92°
2026-05-05 01:24 41.40208 -81.85380 779 ft 2 kts 85°
2026-05-05 01:25 41.40226 -81.85372 779 ft 5 kts 350°
2026-05-05 01:25 41.40272 -81.85388 779 ft 9 kts 353°
2026-05-05 01:25 41.40293 -81.85387 780 ft 0 kts 359°
2026-05-05 01:25 41.40298 -81.85393 780 ft 2 kts 316°
2026-05-05 01:26 41.40320 -81.85421 779 ft 6 kts 324°
2026-05-05 01:26 41.40374 -81.85447 780 ft 10 kts 341°
2026-05-05 01:26 41.40452 -81.85482 780 ft 14 kts 342°
2026-05-05 01:26 41.40555 -81.85515 780 ft 15 kts 20°
2026-05-05 01:27 41.40628 -81.85409 781 ft 17 kts 50°
2026-05-05 01:27 41.40713 -81.85274 781 ft 21 kts 51°
2026-05-05 01:27 41.40812 -81.85119 783 ft 24 kts 50°
2026-05-05 01:27 41.40891 -81.84992 784 ft 26 kts 50°
2026-05-05 01:28 41.41011 -81.84804 786 ft 29 kts 49°
2026-05-05 01:28 41.41145 -81.84593 788 ft 29 kts 50°
2026-05-05 01:28 41.41273 -81.84390 789 ft 28 kts 50°
2026-05-05 01:28 41.41392 -81.84202 790 ft 26 kts 49°
2026-05-05 01:29 41.41444 -81.84146 791 ft 0 kts
2026-05-05 01:29 41.41463 -81.84153 791 ft 7 kts 338°
2026-05-05 01:30 41.41513 -81.84223 790 ft 11 kts 280°
2026-05-05 01:30 41.41452 -81.84339 789 ft 39 kts 230°
2026-05-05 01:30 41.41029 -81.85005 787 ft 139 kts 230°
2026-05-05 01:30 41.40358 -81.86082 1145 ft 161 kts 230°
2026-05-05 01:31 41.39578 -81.87312 1548 ft 188 kts 228°
2026-05-05 01:31 41.38889 -81.88897 2018 ft 211 kts 252°
2026-05-05 01:31 41.38927 -81.90858 3296 ft 205 kts 273°
2026-05-05 01:31 41.39173 -81.92732 4468 ft 209 kts 274°
2026-05-05 01:32 41.39426 -81.94749 5098 ft 232 kts 275°
2026-05-05 01:32 41.39705 -81.96885 6116 ft 234 kts 276°
2026-05-05 01:32 41.39988 -81.99026 7160 ft 236 kts 276°